Location: Dead Woman Crossing
(43.5369°N, 106.3228°W)
Time: 19:54:14
(UTC+00:00)

deb Delta 126 - Pass Details

Date: 19 December 2022
Orbit: 1045 x 1647 km, 101.7° (Epoch: 03 February)

Event Time Altitude Azimuth Distance (km) Brightness Sun altitude
Rises 10:17:22 0° 97° (E) 3,967 ? -45.4°
Reaches altitude 10° 10:21:49 10° 69° (ENE) 2,929 ? -44.6°
Maximum altitude 10:24:12 12° 47° (NE) 2,732 ? -44.2°
Drops below altitude 10° 10:26:33 10° 25° (NNE) 2,879 ? -43.8°
Enters shadow 10:27:54 - 14° (NNE) 3,105 ? -43.5°
